Retour au catalogue

THORAD DELTA 1 DEB

ActifSSO
NORAD 8160·DEBRIS·🇺🇸 United States

Lancé Nov 15, 1974 depuis Vandenberg Space Force Base

Loading…

Prochains Passages (prochaines 24 heures)

TLE

FraisSource: Space-Track

Époque: Sep 14, 2026, 08:33 UTC

1 08160U 74089AA  26257.35633179  .00000017  00000-0  33986-3 0  9992
2 08160 101.8411  36.4458 0146411 268.5688 117.5601 12.63552066389123

Suivez THORAD DELTA 1 DEB en temps réel avec AllMySat

Download on the App Store